Weather History for Cumberland, MD

Change the Weather History Date:

Wednesday, May 8, 2013

  Actual Average (KMRB) Record (KMRB)
Temperature  
Mean Temperature 60 °F 59 °F  
Max Temperature 69 °F 71 °F 95 °F (1930)
Min Temperature 50 °F 47 °F 31 °F (1974)
Degree Days  
Heating Degree Days 6 7  
Month to date heating degree days 62  
Since 1 July heating degree days 5119  
Cooling Degree Days 0 1  
Month to date cooling degree days 8  
Year to date cooling degree days 17  
Growing Degree Days 10 (Base 50)    
Moisture  
Dew Point 51 °F    
Average Humidity 78    
Maximum Humidity 100    
Minimum Humidity 46    
Precipitation  
Precipitation 0.00 in 0.14 in 2.52 in (1960)
Month to date precipitation 1.05  
Year to date precipitation 12.69  
Sea Level Pressure  
Sea Level Pressure 30.00 in    
Wind  
Wind Speed 3 mph (SSE)    
Max Wind Speed 12 mph    
Max Gust Speed 16 mph    
Visibility 8 miles    
Events      
T = Trace of Precipitation, MM = Missing Value Source: NWS Daily Summary

Daily Weather History Graph

Daily Weather History Graph

Search for Another Location

Airport:

Trip Planner

Search our weather history database for the weather conditions in past years. The results will help you decide how hot, cold, wet, or windy it might be!

Date:

Astronomy

May. 08, 2013 Rise Set
Actual Time 6:07 AM EDT 8:16 PM EDT
Civil Twilight 5:37 AM EDT 8:46 PM EDT
Nautical Twilight 5:01 AM EDT 9:22 PM EDT
Astronomical Twilight 4:21 AM EDT 10:02 PM EDT
Moon 5:14 AM EDT (5/8) 7:12 PM EDT (5/8)
Length of Visible Light 15h 08m
Length of Day
14h 08m
Waning Crescent, 2% of the Moon is Illuminated
May 8
Waning Crescent
May 9
New
May 18
First Quarter
May 25
Full
May 31
Last Quarter

Hourly Weather History & Observations

Time (EDT) Temp. Dew Point Humidity Pressure Visibility Wind Dir Wind Speed Gust Speed Precip Events Conditions
12:00 AM 59.0 °F 55.4 °F 88% 29.97 in 5.0 mi NE 6.9 mph 16.1 mph N/A   Overcast
12:20 AM 55.4 °F 53.6 °F 94% 29.97 in 5.0 mi South 9.2 mph - N/A   Overcast
12:40 AM 53.6 °F 51.8 °F 94% 30.00 in 5.0 mi SSE 11.5 mph - N/A   Overcast
1:00 AM 53.6 °F 51.8 °F 94% 30.01 in 5.0 mi South 5.8 mph - N/A   Overcast
1:21 AM 53.6 °F 51.8 °F 94% 30.00 in 5.0 mi Calm Calm - N/A   Overcast
1:41 AM 53.6 °F 51.8 °F 94% 29.99 in 5.0 mi North 3.5 mph - N/A   Overcast
2:01 AM 53.6 °F 53.6 °F 100% 29.99 in 7.0 mi NNE 5.8 mph - N/A   Overcast
2:21 AM 53.6 °F 51.8 °F 94% 29.98 in 10.0 mi Calm Calm - N/A   Overcast
2:41 AM 53.6 °F 51.8 °F 94% 29.97 in 10.0 mi NNE 5.8 mph - N/A   Scattered Clouds
3:01 AM 53.6 °F 51.8 °F 94% 29.98 in 10.0 mi Calm Calm - N/A   Clear
3:21 AM 53.6 °F 51.8 °F 94% 29.98 in 10.0 mi Calm Calm - N/A   Clear
3:41 AM 53.6 °F 51.8 °F 94% 29.98 in 10.0 mi Calm Calm - N/A   Scattered Clouds
4:01 AM 51.8 °F 51.8 °F 100% 29.98 in 7.0 mi Calm Calm - N/A   Scattered Clouds
4:21 AM 51.8 °F 50.0 °F 94% 29.99 in 1.5 mi Calm Calm - N/A   Unknown
4:41 AM 51.8 °F 50.0 °F 94% 30.00 in 0.5 mi Calm Calm - N/A   Overcast
5:01 AM 51.8 °F 50.0 °F 94% 30.00 in 1.0 mi Calm Calm - N/A   Overcast
5:21 AM 50.0 °F 50.0 °F 100% 30.00 in 0.5 mi Calm Calm - N/A   Overcast
5:41 AM 50.0 °F 50.0 °F 100% 30.00 in 0.2 mi Calm Calm - N/A   Overcast
7:21 AM 51.8 °F 51.8 °F 100% 30.03 in 0.5 mi Calm Calm - N/A   Overcast
7:41 AM 51.8 °F 51.8 °F 100% 30.04 in 0.2 mi Calm Calm - N/A   Overcast
8:01 AM 51.8 °F 51.8 °F 100% 30.05 in 3.0 mi Calm Calm - N/A   Overcast
8:21 AM 53.6 °F 51.8 °F 94% 30.05 in 10.0 mi Calm Calm - N/A   Overcast
8:41 AM 53.6 °F 53.6 °F 100% 30.06 in 4.0 mi Calm Calm - N/A   Overcast
9:01 AM 53.6 °F 53.6 °F 100% 30.06 in 7.0 mi Calm Calm - N/A   Overcast
9:21 AM 55.4 °F 53.6 °F 94% 30.06 in 10.0 mi Calm Calm - N/A   Mostly Cloudy
9:42 AM 55.4 °F 53.6 °F 94% 30.05 in 10.0 mi Calm Calm - N/A   Scattered Clouds
10:02 AM 59.0 °F 51.8 °F 77% 30.05 in 10.0 mi Calm Calm - N/A   Mostly Cloudy
10:22 AM 59.0 °F 51.8 °F 77% 30.05 in 10.0 mi Calm Calm - N/A   Overcast
10:42 AM 60.8 °F 51.8 °F 72% 30.05 in 10.0 mi Calm Calm - N/A   Scattered Clouds
11:02 AM 62.6 °F 51.8 °F 68% 30.05 in 10.0 mi SE 3.5 mph - N/A   Mostly Cloudy
11:22 AM 62.6 °F 53.6 °F 72% 30.04 in 10.0 mi Calm Calm - N/A   Mostly Cloudy
11:42 AM 64.4 °F 51.8 °F 64% 30.04 in 10.0 mi Calm Calm - N/A   Scattered Clouds
12:02 PM 64.4 °F 50.0 °F 59% 30.03 in 10.0 mi Calm Calm - N/A   Scattered Clouds
12:22 PM 66.2 °F 50.0 °F 56% 30.03 in 10.0 mi East 3.5 mph - N/A   Scattered Clouds
12:42 PM 64.4 °F 50.0 °F 59% 30.02 in 10.0 mi South 3.5 mph - N/A   Scattered Clouds
1:02 PM 64.4 °F 50.0 °F 59% 30.02 in 10.0 mi Calm Calm - N/A   Scattered Clouds
1:22 PM 64.4 °F 50.0 °F 59% 30.02 in 10.0 mi North 3.5 mph - N/A   Mostly Cloudy
1:42 PM 66.2 °F 50.0 °F 56% 30.01 in 10.0 mi Calm Calm - N/A   Scattered Clouds
2:02 PM 66.2 °F 50.0 °F 56% 30.00 in 10.0 mi Calm Calm - N/A   Clear
2:22 PM 68.0 °F 50.0 °F 52% 29.99 in 10.0 mi Calm Calm - N/A   Clear
2:42 PM 68.0 °F 46.4 °F 46% 29.98 in 10.0 mi Calm Calm - N/A   Clear
3:02 PM 68.0 °F 46.4 °F 46% 29.97 in 10.0 mi Calm Calm - N/A   Clear
3:22 PM 68.0 °F 46.4 °F 46% 29.97 in 10.0 mi Calm Calm - N/A   Clear
4:02 PM 69.8 °F 48.2 °F 46% 29.95 in 10.0 mi South 8.1 mph - N/A   Clear
4:42 PM 68.0 °F 46.4 °F 46% 29.96 in 10.0 mi SSW 9.2 mph - N/A   Clear
5:02 PM 69.8 °F 48.2 °F 46% 29.96 in 10.0 mi SSE 6.9 mph - N/A   Scattered Clouds
5:22 PM 64.4 °F 50.0 °F 59% 29.95 in 10.0 mi SSE 9.2 mph - N/A   Mostly Cloudy
5:42 PM 64.4 °F 51.8 °F 64% 29.95 in 10.0 mi South 5.8 mph - N/A   Mostly Cloudy
6:02 PM 66.2 °F 50.0 °F 56% 29.96 in 10.0 mi SSE 6.9 mph - N/A   Scattered Clouds
6:23 PM 62.6 °F 48.2 °F 59% 29.96 in 10.0 mi SSW 10.4 mph - N/A   Scattered Clouds
6:43 PM 64.4 °F 50.0 °F 59% 29.96 in 10.0 mi SSW 10.4 mph - N/A   Clear
7:03 PM 62.6 °F 50.0 °F 63% 29.97 in 10.0 mi SW 6.9 mph - N/A   Scattered Clouds
7:23 PM 62.6 °F 50.0 °F 63% 29.97 in 10.0 mi South 4.6 mph - N/A   Mostly Cloudy
7:43 PM 60.8 °F 50.0 °F 68% 29.98 in 10.0 mi SW 3.5 mph - N/A   Mostly Cloudy
8:03 PM 60.8 °F 50.0 °F 68% 29.99 in 10.0 mi Calm Calm - N/A   Mostly Cloudy
8:23 PM 60.8 °F 48.2 °F 63% 30.00 in 10.0 mi Calm Calm - N/A   Mostly Cloudy
8:43 PM 59.0 °F 53.6 °F 82% 30.00 in 10.0 mi Calm Calm - N/A   Overcast
9:03 PM 59.0 °F 51.8 °F 77% 29.99 in 10.0 mi Calm Calm - N/A   Overcast
9:23 PM 57.2 °F 53.6 °F 88% 29.99 in 10.0 mi Calm Calm - N/A   Overcast
9:43 PM 57.2 °F 53.6 °F 88% 29.99 in 10.0 mi SE 3.5 mph - N/A   Mostly Cloudy
10:03 PM 55.4 °F 53.6 °F 94% 30.00 in 10.0 mi Calm Calm - N/A   Clear
10:23 PM 55.4 °F 53.6 °F 94% 30.01 in 10.0 mi Calm Calm - N/A   Clear
10:43 PM 55.4 °F 53.6 °F 94% 30.02 in 10.0 mi Calm Calm - N/A   Scattered Clouds
11:03 PM 55.4 °F 53.6 °F 94% 30.02 in 10.0 mi Calm Calm - N/A   Mostly Cloudy
11:23 PM 55.4 °F 53.6 °F 94% 30.01 in 10.0 mi Calm Calm - N/A   Mostly Cloudy
11:43 PM 53.6 °F 51.8 °F 94% 30.01 in 0.8 mi Calm Calm - N/A   Overcast